| time (UTC) | temp C | wind direction | speed KPH | gust KPH | rain 1hr cm | rain 24hr cm | rain mn cm | humidity % | barometer mb |
| 20260504050021 | 8 | 301 | 12.9 | 16.1 | 0.00 | 0.00 | 0.00 | 53 | 922.6 |
| 20260504045023 | 8 | 342 | 9.7 | 12.9 | 0.00 | 0.00 | 0.00 | 52 | 922.3 |
| 20260504044045 | 8 | 358 | 9.7 | 14.5 | 0.00 | 0.00 | 0.00 | 51 | 922.3 |
| 20260504043028 | 8 | 317 | 8.0 | 11.3 | 0.00 | 0.00 | 0.00 | 50 | 922.1 |
| 20260504042030 | 9 | 344 | 9.7 | 12.9 | 0.00 | 0.00 | 0.00 | 49 | 922.0 |
| 20260504041033 | 10 | 328 | 11.3 | 14.5 | 0.00 | 0.00 | 0.00 | 47 | 921.9 |
| 20260504040016 | 10 | 345 | 11.3 | 12.9 | 0.00 | 0.00 | 0.00 | 46 | 921.8 |
| 20260504035019 | 10 | 342 | 14.5 | 19.3 | 0.00 | 0.00 | 0.00 | 46 | 921.8 |
| 20260504034021 | 10 | 322 | 14.5 | 19.3 | 0.00 | 0.00 | 0.00 | 46 | 921.5 |
| 20260504033037 | 10 | 3 | 12.9 | 17.7 | 0.00 | 0.00 | 0.00 | 47 | 921.3 |
| 20260504032026 | 10 | 337 | 14.5 | 19.3 | 0.00 | 0.00 | 0.00 | 47 | 921.3 |
| 20260504031049 | 10 | 18 | 14.5 | 25.7 | 0.00 | 0.00 | 0.00 | 47 | 921.2 |
| 20260504030030 | 10 | 327 | 14.5 | 20.9 | 0.00 | 0.00 | 0.00 | 47 | 921.1 |
| 20260504025034 | 11 | 354 | 16.1 | 20.9 | 0.00 | 0.00 | 0.00 | 46 | 921.1 |
| 20260504024018 | 11 | 355 | 16.1 | 24.1 | 0.00 | 0.00 | 0.00 | 46 | 921.3 |
| 20260504023019 | 11 | 346 | 22.5 | 32.2 | 0.00 | 0.00 | 0.00 | 45 | 921.0 |
| 20260504022016 | 12 | 7 | 25.7 | 32.2 | 0.00 | 0.00 | 0.00 | 43 | 920.9 |
| 20260504021031 | 12 | 357 | 20.9 | 27.4 | 0.00 | 0.00 | 0.00 | 43 | 920.8 |
| 20260504020028 | 12 | 7 | 24.1 | 37.0 | 0.00 | 0.00 | 0.00 | 43 | 920.8 |
| 20260504015030 | 13 | 341 | 19.3 | 27.4 | 0.00 | 0.00 | 0.00 | 44 | 920.6 |
| 20260504014032 | 13 | 346 | 24.1 | 32.2 | 0.00 | 0.00 | 0.00 | 42 | 920.1 |
| 20260504013018 | 14 | 323 | 25.7 | 32.2 | 0.00 | 0.00 | 0.00 | 37 | 919.8 |
| 20260504012018 | 15 | 332 | 25.7 | 33.8 | 0.00 | 0.00 | 0.00 | 36 | 919.8 |
| 20260504011020 | 15 | 311 | 29.0 | 45.1 | 0.00 | 0.00 | 0.00 | 36 | 919.8 |
| 20260504010023 | 14 | 322 | 25.7 | 30.6 | 0.00 | 0.00 | 0.00 | 39 | 919.6 |
| 20260504005040 | 15 | 320 | 24.1 | 35.4 | 0.00 | 0.00 | 0.00 | 37 | 919.6 |
| 20260504004016 | 15 | 325 | 25.7 | 35.4 | 0.00 | 0.00 | 0.00 | 37 | 919.6 |
| 20260504003018 | 15 | 336 | 24.1 | 33.8 | 0.00 | 0.00 | 0.00 | 36 | 919.8 |
| 20260504002020 | 15 | 317 | 22.5 | 33.8 | 0.00 | 0.00 | 0.00 | 36 | 919.8 |
| 20260504001022 | 15 | 316 | 20.9 | 27.4 | 0.00 | 0.00 | 0.00 | 37 | 919.8 |
| 20260504000022 | 15 | 323 | 16.1 | 24.1 | 0.00 | 0.00 | 0.00 | 38 | 919.8 |
| 20260503235042 | 14 | 328 | 16.1 | 24.1 | 0.00 | 0.00 | 0.00 | 38 | 919.8 |
| 20260503234100 | 14 | 314 | 22.5 | 32.2 | 0.00 | 0.00 | 0.00 | 37 | 919.6 |
| 20260503233021 | 14 | 337 | 22.5 | 30.6 | 0.00 | 0.00 | 0.00 | 38 | 919.6 |
| 20260503232024 | 14 | 328 | 22.5 | 29.0 | 0.00 | 0.00 | 0.00 | 38 | 919.6 |
| 20260503231020 | 15 | 315 | 20.9 | 29.0 | 0.00 | 0.00 | 0.00 | 37 | 919.6 |
| 20260503230017 | 15 | 320 | 25.7 | 30.6 | 0.00 | 0.00 | 0.00 | 37 | 919.6 |
| 20260503225040 | 15 | 337 | 24.1 | 29.0 | 0.00 | 0.00 | 0.00 | 36 | 919.5 |
| 20260503224018 | 16 | 347 | 24.1 | 33.8 | 0.00 | 0.00 | 0.00 | 35 | 919.3 |
| 20260503223019 | 16 | 340 | 27.4 | 37.0 | 0.00 | 0.00 | 0.00 | 34 | 919.1 |
| 20260503222021 | 16 | 1 | 25.7 | 33.8 | 0.00 | 0.00 | 0.00 | 34 | 919.1 |
| 20260503221024 | 17 | 332 | 27.4 | 37.0 | 0.00 | 0.00 | 0.00 | 33 | 919.0 |
| 20260503220020 | 17 | 2 | 25.7 | 33.8 | 0.00 | 0.00 | 0.00 | 31 | 918.8 |
| 20260503215017 | 18 | 11 | 25.7 | 32.2 | 0.00 | 0.00 | 0.00 | 31 | 918.8 |
| 20260503214021 | 19 | 316 | 25.7 | 43.5 | 0.00 | 0.00 | 0.00 | 30 | 918.6 |
| 20260503213018 | 20 | 3 | 22.5 | 29.0 | 0.00 | 0.00 | 0.00 | 29 | 918.6 |
| 20260503212020 | 18 | 331 | 24.1 | 32.2 | 0.00 | 0.00 | 0.00 | 31 | 918.5 |
| 20260503211022 | 18 | 336 | 25.7 | 35.4 | 0.00 | 0.00 | 0.00 | 31 | 918.5 |
| 20260503210018 | 20 | 345 | 25.7 | 30.6 | 0.00 | 0.00 | 0.00 | 30 | 918.6 |
| 20260503205016 | 20 | 334 | 25.7 | 33.8 | 0.00 | 0.00 | 0.00 | 30 | 918.3 |
| 20260503204017 | 20 | 314 | 25.7 | 40.2 | 0.00 | 0.00 | 0.00 | 32 | 918.3 |
| 20260503203019 | 20 | 311 | 24.1 | 41.8 | 0.00 | 0.00 | 0.00 | 32 | 918.3 |
| 20260503202022 | 19 | 302 | 24.1 | 29.0 | 0.00 | 0.00 | 0.00 | 32 | 918.3 |
| 20260503201045 | 20 | 313 | 24.1 | 33.8 | 0.00 | 0.00 | 0.00 | 31 | 918.4 |
| 20260503200027 | 20 | 305 | 20.9 | 29.0 | 0.00 | 0.00 | 0.00 | 32 | 918.5 |
| 20260503195029 | 20 | 316 | 22.5 | 35.4 | 0.00 | 0.00 | 0.00 | 30 | 918.3 |
| 20260503194032 | 21 | 315 | 22.5 | 29.0 | 0.00 | 0.00 | 0.00 | 30 | 918.3 |
| 20260503193016 | 20 | 323 | 22.5 | 29.0 | 0.00 | 0.00 | 0.00 | 30 | 918.3 |
| 20260503192018 | 20 | 311 | 27.4 | 35.4 | 0.00 | 0.00 | 0.00 | 31 | 918.4 |
| 20260503191020 | 20 | 315 | 25.7 | 38.6 | 0.00 | 0.00 | 0.00 | 32 | 918.5 |
| 20260503190036 | 20 | 341 | 17.7 | 25.7 | 0.00 | 0.00 | 0.00 | 34 | 918.4 |
| 20260503185026 | 20 | 329 | 22.5 | 32.2 | 0.00 | 0.00 | 0.00 | 35 | 918.3 |
| 20260503184027 | 20 | 324 | 22.5 | 32.2 | 0.00 | 0.00 | 0.00 | 36 | 918.5 |
| 20260503183024 | 19 | 307 | 25.7 | 33.8 | 0.00 | 0.00 | 0.00 | 37 | 918.5 |
| 20260503182021 | 19 | 336 | 25.7 | 32.2 | 0.00 | 0.00 | 0.00 | 37 | 918.6 |
| 20260503181018 | 19 | 322 | 25.7 | 33.8 | 0.00 | 0.00 | 0.00 | 36 | 918.5 |
| 20260503180020 | 19 | 328 | 27.4 | 46.7 | 0.00 | 0.00 | 0.00 | 36 | 918.3 |
| 20260503175045 | 19 | 337 | 27.4 | 38.6 | 0.00 | 0.00 | 0.00 | 36 | 918.6 |
| 20260503174020 | 19 | 318 | 25.7 | 32.2 | 0.00 | 0.00 | 0.00 | 36 | 918.6 |
| 20260503173021 | 19 | 317 | 27.4 | 37.0 | 0.00 | 0.00 | 0.00 | 36 | 918.6 |
| 20260503172045 | 19 | 310 | 22.5 | 33.8 | 0.00 | 0.00 | 0.00 | 36 | 918.6 |
| 20260503171026 | 19 | 290 | 20.9 | 25.7 | 0.00 | 0.00 | 0.00 | 37 | 918.7 |
| 20260503131156 | 10 | 290 | 9.7 | 11.3 | 0.00 | 0.00 | 0.00 | 57 | 919.7 |
| 20260503081044 | 7 | 238 | 12.9 | 14.5 | 0.00 | 0.00 | 0.00 | 79 | 920.6 |
| 20260503072024 | 8 | 231 | 12.9 | 14.5 | 0.00 | 0.00 | 0.00 | 71 | 921.0 |
| 20260503071048 | 8 | 238 | 12.9 | 17.7 | 0.00 | 0.00 | 0.00 | 69 | 921.0 |
| 20260503055030 | 9 | 237 | 12.9 | 16.1 | 0.00 | 0.00 | 0.00 | 64 | 921.6 |
| 20260503054032 | 9 | 244 | 11.3 | 14.5 | 0.00 | 0.00 | 0.00 | 64 | 921.6 |
| 20260503053015 | 10 | 249 | 11.3 | 12.9 | 0.00 | 0.00 | 0.00 | 62 | 921.8 |
| 20260503052017 | 10 | 235 | 11.3 | 12.9 | 0.00 | 0.00 | 0.00 | 61 | 921.8 |